Location: Unspecified
(35.6961°N, 0.0000°E)
Time: 01:27:01
(UTC+00:00)

Altair - Pass Details

Date: 19 May 2019
Orbit: 1501 x 1683 km, 47.2° (Epoch: 14 June)

Event Time Altitude Azimuth Distance (km) Brightness Sun altitude
Rises 04:53:47 0° 237° (WSW) 4,903 - -0.6°
Exits shadow 04:53:52 - 237° (WSW) 4,878 9.4 -0.5°
Reaches altitude 10° 04:56:56 10° 239° (WSW) 3,928 9.0 0.0°
Maximum altitude 05:07:06 82° 326° (NNW) 1,699 7.9 1.9°
Drops below altitude 10° 05:17:17 10° 55° (NE) 3,917 11.7 3.8°
Sets 05:20:25 0° 57° (ENE) 4,890 12.3 4.4°
